ROMMA est une association bénévole à but non lucratif. Votre soutien est indispensable : ADHERER à ROMMA ou FAIRE un DON

Le Versoud - (38, Isère)

Vallée du Grésivaudan (220 m)   Longitude: 05° 51' 44" E   Latitude: 45° 13' 06" N Station partenaire n°6
 

Détail journalier du     <<     >>

Température Precipitation Humidité Pression Vent Dir Rafale Dir. rafale Ensol.
Heure (°C) (mm) (%) (hPa) (km/h) (km/h) (min)
01:00 13.1390102306SSE0
02:00 12.71.691102305SSE0
03:00 12.108410231---18N0
04:00 11.7088102302SE0
05:00 11.0089102400---0
06:00 10.1090102402SE0
07:00 9.5089102500---0
08:00 12.5081102500---60
09:00 14.1074102500---60
10:00 15.8059102402SE60
11:00 18.2052102308SE60
12:00 19.7049102308SE60
13:00 20.704010221N13NO60
14:00 21.703610221NO11NO60
15:00 23.20311021013ONO60
16:00 24.3031102008ONO60
17:00 24.8031102008NO60
18:00 25.2031101908NO60
19:00 26.2031101903NO60
20:00 24.6033102006NO60
21:00 21.20431020011ESE20
22:00 18.70531021016SE0
23:00 16.8065102100---0
minuit 15.6068102200---0

Graphique du 08-06-2019

 

Serveur OMMA